User: anonymous   Login
Location: Fort Wayne
(41.1310°N, 85.1290°W)
Time: 19:13:39
(UTC-05:00)
Language:

Cosmos 2219 Rocket - Orbit

View from above orbital plane
View from above orbital plane
View from above satellite
View from above satellite

Ground track
Ground track

The orbit data is extracted from the following two-line orbital elements,

1 22220U 92076B   17323.84429573  .00000214  00000-0  13178-3 0  9990
2 22220  71.0001  91.5964 0011739  26.5769  85.4496 14.16423805292811
Epoch (UTC): 19 November 2017 20:15:47
Eccentricity: 0.0011739
inclination: 71.0001°
perigee height: 829 km
apogee height: 846 km
right ascension of ascending node: 91.5964°
argument of perigee: 26.5769°
revolutions per day: 14.16423805
mean anomaly at epoch: 85.4496°
orbit number at epoch: 29281

The dashed part of the orbit path shows where the satellite is in the earth's shadow,  

DLR